Вернуться в каталог

SL-8 DEB

АктивенLEO
NORAD 13261·DEBRIS·🇷🇺 Russia

Запущен Jun 6, 1982 с Plesetsk Cosmodrome

Loading…

Ближайшие Пролёты (ближайшие 24 часа)

TLE

СвежийSource: Space-Track

Эпоха: Sep 14, 2026, 05:08 UTC

1 13261U 82055C   26257.21409737 -.00000028  00000-0  56770-4 0  9998
2 13261  65.8375 341.6438 0020397 290.7554  88.6022 13.72898959218346

Отслеживайте SL-8 DEB в реальном времени с AllMySat

Download on the App Store